Location: Im Fang
(46.6019°N, 7.2397°E)
Time: 13:18:27
(UTC+00:00)

Cosmos 1371 Rocket - Pass Details

Date: 08 December 2019
Orbit: 754 x 789 km, 74.0° (Epoch: 16 January)

Event Time Altitude Azimuth Distance (km) Brightness Sun altitude
Exits shadow 04:26:38 38° 196° (SSW) 1,158 4.8 -25.7°
Maximum altitude 04:28:43 86° 111° (ESE) 772 3.9 -25.3°
Drops below altitude 10° 04:33:56 10° 23° (NNE) 2,300 6.6 -24.5°
Sets 04:36:18 0° 23° (NNE) 3,226 7.4 -24.1°
